START_TIME,STEP,MOV.,H8,t_acc.,H43,t_acc.,M25,t_acc.,H9,t_acc.
1981-08-25 03:00:30.500 ,0,0,0.,12.0,0.,12.0,0.,12.0,0.,12.0
1981-08-25 03:00:42.500 ,0,0,0.,12.0,0.,12.0,0.,12.0,0.,12.0
1981-08-25 03:00:54.500 ,0,0,0.,12.0,0.,12.0,0.,12.0,0.,12.0
1981-08-25 03:01:06.500 ,0,0,0.,12.0,0.,12.0,0.,12.0,0.,12.0
1981-08-25 03:01:18.500 ,0,0,0.,12.0,0.,12.0,0.,12.0,0.,12.0
1981-08-25 03:01:30.500 ,0,0,0.,12.0,0.,12.0,0.,12.0,0.,12.0
1981-08-25 03:01:42.500 ,1,0,0.,12.0,0.,12.0,0.,12.0,0.,12.0
1981-08-25 03:01:54.500 ,1,0,0.,12.0,0.,12.0,0.,12.0,0.,12.0
1981-08-25 03:02:06.500 ,1,0,0.,12.0,0.,12.0,0.,12.0,0.,12.0
1981-08-25 03:02:18.500 ,1,0,0.,12.0,0.,12.0,0.,12.0,0.,12.0
1981-08-25 03:02:30.500 ,2,0,0.,12.0,0.,12.0,0.,12.0,0.,12.0
1981-08-25 03:02:42.500 ,2,0,0.,12.0,0.,12.0,0.,12.0,0.,12.0
1981-08-25 03:02:54.500 ,2,0,0.,12.0,0.,12.0,0.,12.0,0.,12.0
1981-08-25 03:03:06.500 ,2,0,0.,12.0,0.,12.0,0.,12.0,0.,12.0
1981-08-25 03:03:18.500 ,3,0,0.,12.0,0.,12.0,0.,12.0,0.,12.0
1981-08-25 03:03:30.500 ,3,0,0.,12.0,0.,12.0,0.,12.0,0.,12.0
1981-08-25 03:03:42.500 ,3,0,0.,12.0,0.,12.0,0.,12.0,0.,12.0
1981-08-25 03:03:54.500 ,3,0,0.,12.0,0.,12.0,0.,12.0,0.,12.0
1981-08-25 03:04:06.500 ,4,0,0.,12.0,0.,12.0,0.,12.0,0.,12.0
1981-08-25 03:04:18.500 ,4,0,0.,12.0,0.,12.0,0.,12.0,0.,12.0
1981-08-25 03:04:30.500 ,4,0,0.,12.0,0.,12.0,0.,12.0,0.,12.0
1981-08-25 03:04:42.500 ,4,0,0.,12.0,0.,12.0,0.,12.0,0.,12.0
1981-08-25 03:04:54.500 ,5,0,0.,12.0,0.,12.0,0.,12.0,0.,12.0
1981-08-25 03:05:06.500 ,5,0,0.,12.0,0.,12.0,0.,12.0,0.,12.0
1981-08-25 03:05:18.500 ,5,0,0.,12.0,0.,12.0,0.,12.0,0.,12.0
1981-08-25 03:05:30.500 ,5,0,0.,12.0,0.,12.0,0.,12.0,0.,12.0
1981-08-25 03:05:42.500 ,6,0,0.,12.0,0.,12.0,0.,12.0,0.,12.0
1981-08-25 03:05:54.500 ,6,0,0.,12.0,0.,12.0,0.,12.0,0.,12.0
1981-08-25 03:06:06.500 ,6,0,0.,12.0,0.,12.0,0.,12.0,0.,12.0
1981-08-25 03:06:18.500 ,6,0,0.,12.0,0.,12.0,0.,12.0,0.,12.0
1981-08-25 03:06:30.500 ,7,0,0.,12.0,0.,12.0,0.,12.0,0.,12.0
1981-08-25 03:06:42.500 ,7,0,0.,12.0,0.,12.0,0.,12.0,0.,12.0
1981-08-25 03:06:54.500 ,7,0,0.,12.0,0.,12.0,0.,12.0,0.,12.0
1981-08-25 03:07:06.500 ,7,0,0.,12.0,0.,12.0,0.,12.0,0.,12.0
1981-08-25 03:07:18.500 ,7,0,0.,12.0,0.,12.0,0.,12.0,0.,12.0
1981-08-25 03:07:30.500 ,7,0,0.,12.0,0.,12.0,0.,12.0,0.,12.0
1981-08-25 03:07:42.500 ,7,0,0.,12.0,0.,12.0,0.,12.0,0.,12.0
1981-08-25 03:07:54.500 ,7,0,0.,12.0,0.,12.0,0.,12.0,0.,12.0
1981-08-25 03:08:06.500 ,6,0,0.,12.0,0.,12.0,0.,12.0,0.,12.0
1981-08-25 03:08:18.500 ,6,0,0.,12.0,0.,12.0,0.,12.0,0.,12.0
1981-08-25 03:08:30.500 ,6,0,0.,12.0,0.,12.0,0.,12.0,0.,12.0
1981-08-25 03:08:42.500 ,6,0,0.,12.0,0.,12.0,0.,12.0,0.,12.0
1981-08-25 03:08:54.500 ,5,0,0.,12.0,0.,12.0,0.,12.0,0.,12.0
1981-08-25 03:09:06.500 ,5,0,0.,12.0,0.,12.0,0.,12.0,0.,12.0
1981-08-25 03:09:18.500 ,5,0,0.,12.0,0.,12.0,0.,12.0,0.,12.0
1981-08-25 03:09:30.500 ,5,0,0.,12.0,0.,12.0,0.,12.0,0.,12.0
1981-08-25 03:09:42.500 ,4,0,0.,12.0,0.,12.0,0.,12.0,0.,12.0
1981-08-25 03:09:54.500 ,4,0,0.,12.0,0.,12.0,0.,12.0,0.,12.0
1981-08-25 03:10:06.500 ,4,0,0.,12.0,0.,12.0,0.,12.0,0.,12.0
1981-08-25 03:10:18.500 ,4,0,0.,12.0,0.,12.0,0.,12.0,0.,12.0
1981-08-25 03:10:30.500 ,3,0,0.,12.0,0.,12.0,0.,12.0,0.,12.0
1981-08-25 03:10:42.500 ,3,0,0.,12.0,0.,12.0,0.,12.0,0.,12.0
1981-08-25 03:10:54.500 ,3,0,0.,12.0,0.,12.0,0.,12.0,0.,12.0
1981-08-25 03:11:06.500 ,3,0,0.,12.0,0.,12.0,0.,12.0,0.,12.0
1981-08-25 03:11:18.500 ,2,0,0.,12.0,0.,12.0,0.,12.0,0.,12.0
1981-08-25 03:11:30.500 ,2,0,0.,12.0,0.,12.0,0.,12.0,0.,12.0
1981-08-25 03:11:42.500 ,2,0,0.,12.0,0.,12.0,0.,12.0,0.,12.0
1981-08-25 03:11:54.500 ,2,0,0.,12.0,0.,12.0,0.,12.0,0.,12.0
1981-08-25 03:12:06.500 ,1,0,0.,12.0,0.,12.0,0.,12.0,0.,12.0
1981-08-25 03:12:18.500 ,1,0,0.,12.0,0.,12.0,0.,12.0,0.,12.0
1981-08-25 03:12:30.500 ,1,0,0.,12.0,0.,12.0,0.,12.0,0.,12.0
1981-08-25 03:12:42.500 ,1,0,0.,12.0,0.,12.0,0.,12.0,0.,12.0
1981-08-25 03:12:54.500 ,0,0,0.,12.0,0.,12.0,0.,12.0,0.,12.0
1981-08-25 03:13:06.500 ,0,0,0.,12.0,0.,12.0,0.,12.0,0.,12.0
1981-08-25 03:13:18.500 ,0,0,0.,12.0,0.,12.0,0.,12.0,0.,12.0
1981-08-25 03:13:30.500 ,0,0,0.,12.0,0.,12.0,0.,12.0,0.,12.0
1981-08-25 03:13:42.500 ,0,0,0.,12.0,0.,12.0,0.,12.0,0.,12.0
1981-08-25 03:13:54.500 ,0,0,0.,12.0,0.,12.0,0.,12.0,0.,12.0
1981-08-25 03:14:06.500 ,0,0,0.,12.0,0.,12.0,0.,12.0,0.,12.0
1981-08-25 03:14:18.500 ,0,0,0.,12.0,0.,12.0,0.,12.0,0.,12.0
1981-08-25 03:14:30.500 ,1,0,0.,12.0,0.,12.0,0.,12.0,0.,12.0
1981-08-25 03:14:42.500 ,1,0,0.,12.0,0.,12.0,0.,12.0,0.,12.0
1981-08-25 03:14:54.500 ,1,0,0.,12.0,0.,12.0,0.,12.0,0.,12.0
1981-08-25 03:15:06.500 ,1,0,0.,12.0,0.,12.0,0.,12.0,0.,12.0
1981-08-25 03:15:18.500 ,2,0,0.,12.0,0.,12.0,0.,12.0,0.,12.0
1981-08-25 03:15:30.500 ,2,0,0.,12.0,0.,12.0,0.,12.0,0.,12.0
1981-08-25 03:15:42.500 ,2,0,0.,12.0,0.,12.0,0.,12.0,0.,12.0
1981-08-25 03:15:54.500 ,2,0,0.,12.0,0.,12.0,0.,12.0,0.,12.0
1981-08-25 03:16:06.500 ,3,0,0.,12.0,0.,12.0,0.,12.0,0.,12.0
1981-08-25 03:16:18.500 ,3,0,0.,12.0,0.,12.0,0.,12.0,0.,12.0
1981-08-25 03:16:30.500 ,3,0,0.,12.0,0.,12.0,0.,12.0,0.,12.0
1981-08-25 03:16:42.500 ,3,0,0.,12.0,0.,12.0,0.,12.0,0.,12.0
1981-08-25 03:16:54.500 ,4,0,0.,12.0,0.,12.0,0.,12.0,0.,12.0
1981-08-25 03:17:06.500 ,4,0,0.,12.0,0.,12.0,0.,12.0,0.,12.0
1981-08-25 03:17:18.500 ,4,0,0.,12.0,0.,12.0,0.,12.0,0.,12.0
1981-08-25 03:17:30.500 ,4,0,0.,12.0,0.,12.0,0.,12.0,0.,12.0
1981-08-25 03:17:42.500 ,5,0,0.,12.0,0.,12.0,0.,12.0,0.,12.0
1981-08-25 03:17:54.500 ,5,0,0.,12.0,0.,12.0,0.,12.0,0.,12.0
1981-08-25 03:18:06.500 ,5,0,0.,12.0,0.,12.0,0.,12.0,0.,12.0
1981-08-25 03:18:18.500 ,5,0,0.,12.0,0.,12.0,0.,12.0,0.,12.0
1981-08-25 03:18:30.500 ,6,0,0.,12.0,0.,12.0,0.,12.0,0.,12.0
1981-08-25 03:18:42.500 ,6,0,0.,12.0,0.,12.0,0.,12.0,0.,12.0
1981-08-25 03:18:54.500 ,6,0,0.,12.0,0.,12.0,0.,12.0,0.,12.0
1981-08-25 03:19:06.500 ,6,0,0.,12.0,0.,12.0,0.,12.0,0.,12.0
1981-08-25 03:19:18.500 ,7,0,0.,12.0,0.,12.0,0.,12.0,0.,12.0
1981-08-25 03:19:30.500 ,7,0,0.,12.0,0.,12.0,0.,12.0,0.,12.0
1981-08-25 03:19:42.500 ,7,0,0.,12.0,0.,12.0,0.,12.0,0.,12.0
1981-08-25 03:19:54.500 ,7,0,0.,12.0,0.,12.0,0.,12.0,0.,12.0
1981-08-25 03:20:06.500 ,7,0,0.,12.0,0.,12.0,0.,12.0,0.,12.0
1981-08-25 03:20:18.500 ,7,0,0.,12.0,0.,12.0,0.,12.0,0.,12.0
1981-08-25 03:20:30.500 ,7,0,0.,12.0,0.,12.0,0.,12.0,0.,12.0
1981-08-25 03:20:42.500 ,7,0,0.,12.0,0.,12.0,0.,12.0,0.,12.0
1981-08-25 03:20:54.500 ,6,0,0.,12.0,0.,12.0,0.,12.0,0.,12.0
1981-08-25 03:21:06.500 ,6,0,0.,12.0,0.,12.0,0.,12.0,0.,12.0
1981-08-25 03:21:18.500 ,6,0,0.,12.0,0.,12.0,0.,12.0,0.,12.0
1981-08-25 03:21:30.500 ,6,0,0.,12.0,0.,12.0,0.,12.0,0.,12.0
1981-08-25 03:21:42.500 ,5,0,0.,12.0,0.,12.0,0.,12.0,0.,12.0
1981-08-25 03:21:54.500 ,5,0,0.,12.0,0.,12.0,0.,12.0,0.,12.0
1981-08-25 03:22:06.500 ,5,0,0.,12.0,0.,12.0,0.,12.0,0.,12.0
1981-08-25 03:22:18.500 ,5,0,0.,12.0,0.,12.0,0.,12.0,0.,12.0
1981-08-25 03:22:30.500 ,4,0,0.,12.0,0.,12.0,0.,12.0,0.,12.0
1981-08-25 03:22:42.500 ,4,0,0.,12.0,0.,12.0,0.,12.0,0.,12.0
1981-08-25 03:22:54.500 ,4,0,0.,12.0,0.,12.0,0.,12.0,0.,12.0
1981-08-25 03:23:06.500 ,4,0,0.,12.0,0.,12.0,0.,12.0,0.,12.0
1981-08-25 03:23:18.500 ,3,0,0.,12.0,0.,12.0,0.,12.0,0.,12.0
1981-08-25 03:23:30.500 ,3,0,0.,12.0,0.,12.0,0.,12.0,0.,12.0
1981-08-25 03:23:42.500 ,3,0,0.,12.0,0.,12.0,0.,12.0,0.,12.0
1981-08-25 03:23:54.500 ,3,0,0.,12.0,0.,12.0,0.,12.0,0.,12.0
1981-08-25 03:24:06.500 ,2,0,0.,12.0,0.,12.0,0.,12.0,0.,12.0
1981-08-25 03:24:18.500 ,2,0,0.,12.0,0.,12.0,0.,12.0,0.,12.0
1981-08-25 03:24:30.500 ,2,0,0.,12.0,0.,12.0,0.,12.0,0.,12.0
1981-08-25 03:24:42.500 ,2,0,0.,12.0,0.,12.0,0.,12.0,0.,12.0
1981-08-25 03:24:54.500 ,1,0,0.,12.0,0.,12.0,0.,12.0,0.,12.0
1981-08-25 03:25:06.500 ,1,0,0.,12.0,0.,12.0,0.,12.0,0.,12.0
1981-08-25 03:25:18.500 ,1,0,0.,12.0,0.,12.0,0.,12.0,0.,12.0
1981-08-25 03:25:30.500 ,1,0,0.,12.0,0.,12.0,0.,12.0,0.,12.0
1981-08-25 03:25:42.500 ,0,0,0.,12.0,0.,12.0,0.,12.0,0.,12.0
1981-08-25 03:25:54.500 ,0,0,0.,12.0,0.,12.0,0.,12.0,0.,12.0
1981-08-25 03:26:06.500 ,0,0,1.,12.0,0.,12.0,0.,12.0,0.,12.0
1981-08-25 03:26:18.500 ,0,0,0.,12.0,0.,12.0,0.,12.0,0.,12.0
1981-08-25 03:26:30.500 ,0,0,0.,12.0,0.,12.0,0.,12.0,0.,12.0
1981-08-25 03:26:42.500 ,0,0,0.,12.0,0.,12.0,0.,12.0,0.,12.0
1981-08-25 03:26:54.500 ,0,0,0.,12.0,0.,12.0,0.,12.0,0.,12.0
1981-08-25 03:27:06.500 ,0,0,0.,12.0,0.,12.0,0.,12.0,0.,12.0
1981-08-25 03:27:18.500 ,1,0,0.,12.0,0.,12.0,0.,12.0,0.,12.0
1981-08-25 03:27:30.500 ,1,0,0.,12.0,0.,12.0,0.,12.0,0.,12.0
1981-08-25 03:27:42.500 ,1,0,0.,12.0,0.,12.0,0.,12.0,0.,12.0
1981-08-25 03:27:54.500 ,1,0,0.,12.0,0.,12.0,0.,12.0,0.,12.0
1981-08-25 03:28:06.500 ,2,0,0.,12.0,0.,12.0,0.,12.0,0.,12.0
1981-08-25 03:28:18.500 ,2,0,0.,12.0,0.,12.0,0.,12.0,0.,12.0
1981-08-25 03:28:30.500 ,2,0,0.,12.0,0.,12.0,0.,12.0,0.,12.0
1981-08-25 03:28:42.500 ,2,0,0.,12.0,0.,12.0,0.,12.0,0.,12.0
1981-08-25 03:28:54.500 ,3,0,0.,12.0,0.,12.0,0.,12.0,0.,12.0
1981-08-25 03:29:06.500 ,3,0,0.,12.0,0.,12.0,0.,12.0,0.,12.0
1981-08-25 03:29:18.500 ,3,0,0.,12.0,0.,12.0,0.,12.0,0.,12.0
1981-08-25 03:29:30.500 ,3,0,0.,12.0,0.,12.0,0.,12.0,0.,12.0
1981-08-25 03:29:42.500 ,4,0,0.,12.0,0.,12.0,0.,12.0,0.,12.0
1981-08-25 03:29:54.500 ,4,0,0.,12.0,0.,12.0,0.,12.0,0.,12.0
1981-08-25 03:30:06.500 ,4,0,0.,12.0,0.,12.0,0.,12.0,0.,12.0
1981-08-25 03:30:18.500 ,4,0,0.,12.0,0.,12.0,0.,12.0,0.,12.0
1981-08-25 03:30:30.500 ,5,0,0.,12.0,0.,12.0,0.,12.0,0.,12.0
1981-08-25 03:30:42.500 ,5,0,0.,12.0,0.,12.0,0.,12.0,0.,12.0
1981-08-25 03:30:54.500 ,5,0,0.,12.0,0.,12.0,0.,12.0,0.,12.0
1981-08-25 03:31:06.500 ,5,0,0.,12.0,0.,12.0,0.,12.0,0.,12.0
1981-08-25 03:31:18.500 ,6,0,0.,12.0,0.,12.0,0.,12.0,0.,12.0
1981-08-25 03:31:30.500 ,6,0,0.,12.0,0.,12.0,0.,12.0,0.,12.0
1981-08-25 03:31:42.500 ,6,0,0.,12.0,0.,12.0,0.,12.0,0.,12.0
1981-08-25 03:31:54.500 ,6,0,0.,12.0,0.,12.0,0.,12.0,0.,12.0
1981-08-25 03:32:06.500 ,7,0,0.,12.0,0.,12.0,0.,12.0,0.,12.0
1981-08-25 03:32:18.500 ,7,0,0.,12.0,0.,12.0,0.,12.0,0.,12.0
1981-08-25 03:32:30.500 ,7,0,0.,12.0,0.,12.0,0.,12.0,0.,12.0
1981-08-25 03:32:42.500 ,7,0,0.,12.0,0.,12.0,0.,12.0,0.,12.0
1981-08-25 03:32:54.500 ,7,0,0.,12.0,0.,12.0,0.,12.0,0.,12.0
1981-08-25 03:33:06.500 ,7,0,0.,12.0,0.,12.0,0.,12.0,0.,12.0
1981-08-25 03:33:18.500 ,7,0,0.,12.0,0.,12.0,0.,12.0,0.,12.0
1981-08-25 03:33:30.500 ,7,0,0.,12.0,0.,12.0,0.,12.0,0.,12.0
1981-08-25 03:33:42.500 ,6,0,0.,12.0,0.,12.0,0.,12.0,0.,12.0
1981-08-25 03:33:54.500 ,6,0,0.,12.0,0.,12.0,0.,12.0,0.,12.0
1981-08-25 03:34:06.500 ,6,0,0.,12.0,0.,12.0,0.,12.0,0.,12.0
1981-08-25 03:34:18.500 ,6,0,0.,12.0,0.,12.0,0.,12.0,0.,12.0
1981-08-25 03:34:30.500 ,5,0,0.,12.0,0.,12.0,0.,12.0,0.,12.0
1981-08-25 03:34:42.500 ,5,0,0.,12.0,0.,12.0,0.,12.0,0.,12.0
1981-08-25 03:34:54.500 ,5,0,0.,12.0,0.,12.0,0.,12.0,0.,12.0
1981-08-25 03:35:06.500 ,5,0,0.,12.0,0.,12.0,0.,12.0,0.,12.0
1981-08-25 03:35:18.500 ,4,0,0.,12.0,0.,12.0,0.,12.0,0.,12.0
1981-08-25 03:35:30.500 ,4,0,0.,12.0,0.,12.0,0.,12.0,0.,12.0
1981-08-25 03:35:42.500 ,4,0,0.,12.0,0.,12.0,0.,12.0,0.,12.0
1981-08-25 03:35:54.500 ,4,0,0.,12.0,0.,12.0,0.,12.0,0.,12.0
1981-08-25 03:36:06.500 ,3,0,0.,12.0,0.,12.0,0.,12.0,0.,12.0
1981-08-25 03:36:18.500 ,3,0,0.,12.0,0.,12.0,0.,12.0,0.,12.0
1981-08-25 03:36:30.500 ,3,0,0.,12.0,0.,12.0,0.,12.0,0.,12.0
1981-08-25 03:36:42.500 ,3,0,0.,12.0,0.,12.0,0.,12.0,0.,12.0
1981-08-25 03:36:54.500 ,2,0,0.,12.0,0.,12.0,0.,12.0,0.,12.0
1981-08-25 03:37:06.500 ,2,0,0.,12.0,0.,12.0,0.,12.0,0.,12.0
1981-08-25 03:37:18.500 ,2,0,0.,12.0,0.,12.0,0.,12.0,0.,12.0
1981-08-25 03:37:30.500 ,2,0,0.,12.0,0.,12.0,0.,12.0,0.,12.0
1981-08-25 03:37:42.500 ,1,0,0.,12.0,0.,12.0,0.,12.0,0.,12.0
1981-08-25 03:37:54.500 ,1,0,0.,12.0,0.,12.0,0.,12.0,0.,12.0
1981-08-25 03:38:06.500 ,1,0,0.,12.0,0.,12.0,0.,12.0,0.,12.0
1981-08-25 03:38:18.500 ,1,0,0.,12.0,0.,12.0,0.,12.0,0.,12.0
1981-08-25 03:38:30.500 ,0,0,0.,12.0,0.,12.0,0.,12.0,0.,12.0
1981-08-25 03:38:42.500 ,0,0,0.,12.0,0.,12.0,0.,12.0,0.,12.0
1981-08-25 03:38:54.500 ,0,0,0.,12.0,0.,12.0,0.,12.0,0.,12.0
1981-08-25 03:39:06.500 ,0,0,0.,12.0,0.,12.0,0.,12.0,0.,12.0
1981-08-25 03:39:18.500 ,0,0,0.,12.0,0.,12.0,0.,12.0,0.,12.0
1981-08-25 03:39:30.500 ,0,0,0.,12.0,0.,12.0,0.,12.0,0.,12.0
1981-08-25 03:39:42.500 ,0,0,0.,12.0,0.,12.0,0.,12.0,0.,12.0
1981-08-25 03:39:54.500 ,0,0,0.,12.0,0.,12.0,0.,12.0,0.,12.0
1981-08-25 03:40:06.500 ,1,0,0.,12.0,0.,12.0,0.,12.0,0.,12.0
1981-08-25 03:40:18.500 ,1,0,0.,12.0,0.,12.0,0.,12.0,0.,12.0
1981-08-25 03:40:30.500 ,1,0,0.,12.0,0.,12.0,0.,12.0,0.,12.0
1981-08-25 03:40:42.500 ,1,0,0.,12.0,0.,12.0,0.,12.0,0.,12.0
1981-08-25 03:40:54.500 ,2,0,0.,12.0,0.,12.0,0.,12.0,0.,12.0
1981-08-25 03:41:06.500 ,2,0,0.,12.0,0.,12.0,0.,12.0,0.,12.0
1981-08-25 03:41:18.500 ,2,0,0.,12.0,0.,12.0,0.,12.0,0.,12.0
1981-08-25 03:41:30.500 ,2,0,0.,12.0,0.,12.0,0.,12.0,0.,12.0
1981-08-25 03:41:42.500 ,3,0,0.,12.0,0.,12.0,0.,12.0,0.,12.0
1981-08-25 03:41:54.500 ,3,0,0.,12.0,0.,12.0,0.,12.0,0.,12.0
1981-08-25 03:42:06.500 ,3,0,0.,12.0,0.,12.0,0.,12.0,0.,12.0
1981-08-25 03:42:18.500 ,3,0,0.,12.0,0.,12.0,0.,12.0,0.,12.0
1981-08-25 03:42:30.500 ,4,0,0.,12.0,0.,12.0,0.,12.0,0.,12.0
1981-08-25 03:42:42.500 ,4,0,0.,12.0,0.,12.0,0.,12.0,0.,12.0
1981-08-25 03:42:54.500 ,4,0,0.,12.0,0.,12.0,0.,12.0,0.,12.0
1981-08-25 03:43:06.500 ,4,0,0.,12.0,0.,12.0,0.,12.0,0.,12.0
1981-08-25 03:43:18.500 ,5,0,0.,12.0,0.,12.0,0.,12.0,0.,12.0
1981-08-25 03:43:30.500 ,5,0,0.,12.0,0.,12.0,0.,12.0,0.,12.0
1981-08-25 03:43:42.500 ,5,0,0.,12.0,0.,12.0,0.,12.0,0.,12.0
1981-08-25 03:43:54.500 ,5,0,0.,12.0,0.,12.0,0.,12.0,0.,12.0
1981-08-25 03:44:06.500 ,6,0,0.,12.0,0.,12.0,0.,12.0,0.,12.0
1981-08-25 03:44:18.500 ,6,0,0.,12.0,0.,12.0,0.,12.0,0.,12.0
1981-08-25 03:44:30.500 ,6,0,0.,12.0,0.,12.0,0.,12.0,0.,12.0
1981-08-25 03:44:42.500 ,6,0,0.,12.0,0.,12.0,0.,12.0,0.,12.0
1981-08-25 03:44:54.500 ,7,0,0.,12.0,0.,12.0,0.,12.0,0.,12.0
1981-08-25 03:45:06.500 ,7,0,0.,12.0,0.,12.0,0.,12.0,0.,12.0
1981-08-25 03:45:18.500 ,7,0,0.,12.0,0.,12.0,0.,12.0,0.,12.0
1981-08-25 03:45:30.500 ,7,0,0.,12.0,0.,12.0,0.,12.0,0.,12.0
1981-08-25 03:45:42.500 ,7,0,0.,12.0,0.,12.0,0.,12.0,0.,12.0
1981-08-25 03:45:54.500 ,7,0,0.,12.0,0.,12.0,0.,12.0,0.,12.0
1981-08-25 03:46:06.500 ,7,0,0.,12.0,0.,12.0,0.,12.0,0.,12.0
1981-08-25 03:46:18.500 ,7,0,0.,12.0,0.,12.0,0.,12.0,0.,12.0
1981-08-25 03:46:30.500 ,6,0,0.,12.0,0.,12.0,0.,12.0,0.,12.0
1981-08-25 03:46:42.500 ,6,0,0.,12.0,0.,12.0,0.,12.0,0.,12.0
1981-08-25 03:46:54.500 ,6,0,0.,12.0,0.,12.0,0.,12.0,0.,12.0
1981-08-25 03:47:06.500 ,6,0,0.,12.0,0.,12.0,0.,12.0,0.,12.0
1981-08-25 03:47:18.500 ,5,0,0.,12.0,0.,12.0,0.,12.0,0.,12.0
1981-08-25 03:47:30.500 ,5,0,0.,12.0,0.,12.0,0.,12.0,0.,12.0
1981-08-25 03:47:42.500 ,5,0,0.,12.0,0.,12.0,0.,12.0,0.,12.0
1981-08-25 03:47:54.500 ,5,0,0.,12.0,0.,12.0,0.,12.0,0.,12.0
1981-08-25 03:48:06.500 ,4,0,0.,12.0,0.,12.0,0.,12.0,0.,12.0
1981-08-25 03:48:18.500 ,4,0,0.,12.0,0.,12.0,0.,12.0,0.,12.0
1981-08-25 03:48:30.500 ,4,0,0.,12.0,0.,12.0,0.,12.0,0.,12.0
1981-08-25 03:48:42.500 ,4,0,0.,12.0,0.,12.0,0.,12.0,0.,12.0
1981-08-25 03:48:54.500 ,3,0,0.,12.0,0.,12.0,0.,12.0,0.,12.0
1981-08-25 03:49:06.500 ,3,0,0.,12.0,0.,12.0,0.,12.0,0.,12.0
1981-08-25 03:49:18.500 ,3,0,0.,12.0,0.,12.0,0.,12.0,0.,12.0
1981-08-25 03:49:30.500 ,3,0,0.,12.0,0.,12.0,0.,12.0,0.,12.0
1981-08-25 03:49:42.500 ,2,0,0.,12.0,0.,12.0,0.,12.0,0.,12.0
1981-08-25 03:49:54.500 ,2,0,0.,12.0,0.,12.0,0.,12.0,0.,12.0
1981-08-25 03:50:06.500 ,2,0,0.,12.0,0.,12.0,0.,12.0,0.,12.0
1981-08-25 03:50:18.500 ,2,0,0.,12.0,0.,12.0,0.,12.0,0.,12.0
1981-08-25 03:50:30.500 ,1,0,0.,12.0,0.,12.0,0.,12.0,0.,12.0
1981-08-25 03:50:42.500 ,1,0,0.,12.0,0.,12.0,0.,12.0,0.,12.0
1981-08-25 03:50:54.500 ,1,0,0.,12.0,0.,12.0,0.,12.0,0.,12.0
1981-08-25 03:51:06.500 ,1,0,0.,12.0,0.,12.0,0.,12.0,0.,12.0
1981-08-25 03:51:18.500 ,0,0,0.,12.0,0.,12.0,0.,12.0,0.,12.0
1981-08-25 03:51:30.500 ,0,0,0.,12.0,0.,12.0,0.,12.0,0.,12.0
1981-08-25 03:51:42.500 ,0,0,0.,12.0,0.,12.0,0.,12.0,0.,12.0
1981-08-25 03:51:54.500 ,0,0,0.,12.0,0.,12.0,0.,12.0,0.,12.0
1981-08-25 03:52:06.500 ,0,0,0.,12.0,0.,12.0,0.,12.0,0.,12.0
1981-08-25 03:52:18.500 ,0,0,0.,12.0,0.,12.0,0.,12.0,0.,12.0
1981-08-25 03:52:30.500 ,0,0,0.,12.0,0.,12.0,0.,12.0,0.,12.0
1981-08-25 03:52:42.500 ,0,0,0.,12.0,0.,12.0,0.,12.0,0.,12.0
1981-08-25 03:52:54.500 ,1,0,0.,12.0,0.,12.0,0.,12.0,0.,12.0
1981-08-25 03:53:06.500 ,1,0,0.,12.0,0.,12.0,0.,12.0,0.,12.0
1981-08-25 03:53:18.500 ,1,0,0.,12.0,0.,12.0,0.,12.0,0.,12.0
1981-08-25 03:53:30.500 ,1,0,0.,12.0,0.,12.0,0.,12.0,0.,12.0
1981-08-25 03:53:42.500 ,2,0,0.,12.0,0.,12.0,0.,12.0,0.,12.0
1981-08-25 03:53:54.500 ,2,0,0.,12.0,0.,12.0,0.,12.0,0.,12.0
1981-08-25 03:54:06.500 ,2,0,0.,12.0,0.,12.0,0.,12.0,0.,12.0
1981-08-25 03:54:18.500 ,2,0,0.,12.0,0.,12.0,0.,12.0,0.,12.0
1981-08-25 03:54:30.500 ,3,0,0.,12.0,0.,12.0,0.,12.0,0.,12.0
1981-08-25 03:54:42.500 ,3,0,0.,12.0,0.,12.0,0.,12.0,0.,12.0
1981-08-25 03:54:54.500 ,3,0,0.,12.0,0.,12.0,0.,12.0,0.,12.0
1981-08-25 03:55:06.500 ,3,0,0.,12.0,0.,12.0,0.,12.0,0.,12.0
1981-08-25 03:55:18.500 ,4,0,0.,12.0,0.,12.0,0.,12.0,0.,12.0
1981-08-25 03:55:30.500 ,4,0,0.,12.0,0.,12.0,0.,12.0,0.,12.0
1981-08-25 03:55:42.500 ,4,0,0.,12.0,0.,12.0,0.,12.0,0.,12.0
1981-08-25 03:55:54.500 ,4,0,0.,12.0,0.,12.0,0.,12.0,0.,12.0
1981-08-25 03:56:06.500 ,5,0,0.,12.0,0.,12.0,0.,12.0,0.,12.0
1981-08-25 03:56:18.500 ,5,0,0.,12.0,0.,12.0,0.,12.0,0.,12.0
1981-08-25 03:56:30.500 ,5,0,0.,12.0,0.,12.0,0.,12.0,0.,12.0
1981-08-25 03:56:42.500 ,5,0,0.,12.0,0.,12.0,0.,12.0,0.,12.0
1981-08-25 03:56:54.500 ,6,0,0.,12.0,0.,12.0,0.,12.0,0.,12.0
1981-08-25 03:57:06.500 ,6,0,0.,12.0,0.,12.0,0.,12.0,0.,12.0
1981-08-25 03:57:18.500 ,6,0,0.,12.0,0.,12.0,0.,12.0,0.,12.0
1981-08-25 03:57:30.500 ,6,0,0.,12.0,0.,12.0,0.,12.0,0.,12.0
1981-08-25 03:57:42.500 ,7,0,0.,12.0,0.,12.0,0.,12.0,0.,12.0
1981-08-25 03:57:54.500 ,7,0,0.,12.0,0.,12.0,0.,12.0,0.,12.0
1981-08-25 03:58:06.500 ,7,0,0.,12.0,0.,12.0,0.,12.0,0.,12.0
1981-08-25 03:58:18.500 ,7,0,0.,12.0,0.,12.0,0.,12.0,0.,12.0
1981-08-25 03:58:30.500 ,7,0,0.,12.0,0.,12.0,0.,12.0,0.,12.0
1981-08-25 03:58:42.500 ,7,0,0.,12.0,0.,12.0,0.,12.0,0.,12.0
1981-08-25 03:58:54.500 ,7,0,0.,12.0,0.,12.0,0.,12.0,0.,12.0
1981-08-25 03:59:06.500 ,7,0,0.,12.0,0.,12.0,0.,12.0,0.,12.0
1981-08-25 03:59:18.500 ,6,0,0.,12.0,0.,12.0,0.,12.0,0.,12.0
1981-08-25 03:59:30.500 ,6,0,0.,12.0,0.,12.0,0.,12.0,0.,12.0
1981-08-25 03:59:42.500 ,6,0,0.,12.0,0.,12.0,0.,12.0,0.,12.0
1981-08-25 03:59:54.500 ,6,0,0.,12.0,0.,12.0,0.,12.0,0.,12.0
1981-08-25 04:00:06.500 ,5,0,0.,12.0,0.,12.0,0.,12.0,0.,12.0
1981-08-25 04:00:18.500 ,5,0,0.,12.0,0.,12.0,0.,12.0,0.,12.0
1981-08-25 04:00:30.500 ,5,0,0.,12.0,0.,12.0,0.,12.0,0.,12.0
1981-08-25 04:00:42.500 ,5,0,0.,12.0,0.,12.0,0.,12.0,0.,12.0
1981-08-25 04:00:54.500 ,4,0,0.,12.0,0.,12.0,0.,12.0,0.,12.0
1981-08-25 04:01:06.500 ,4,0,0.,12.0,0.,12.0,0.,12.0,0.,12.0
1981-08-25 04:01:18.500 ,4,0,0.,12.0,0.,12.0,0.,12.0,0.,12.0
1981-08-25 04:01:30.500 ,4,0,0.,12.0,0.,12.0,0.,12.0,0.,12.0
1981-08-25 04:01:42.500 ,3,0,0.,12.0,0.,12.0,0.,12.0,0.,12.0
1981-08-25 04:01:54.500 ,3,0,0.,12.0,0.,12.0,0.,12.0,0.,12.0
1981-08-25 04:02:06.500 ,3,0,0.,12.0,0.,12.0,0.,12.0,0.,12.0
1981-08-25 04:02:18.500 ,3,0,0.,12.0,0.,12.0,0.,12.0,0.,12.0
1981-08-25 04:02:30.500 ,2,0,0.,12.0,0.,12.0,0.,12.0,0.,12.0
1981-08-25 04:02:42.500 ,2,0,0.,12.0,0.,12.0,0.,12.0,0.,12.0
1981-08-25 04:02:54.500 ,2,0,0.,12.0,0.,12.0,0.,12.0,0.,12.0
1981-08-25 04:03:06.500 ,2,0,0.,12.0,0.,12.0,0.,12.0,0.,12.0
1981-08-25 04:03:18.500 ,1,0,0.,12.0,0.,12.0,0.,12.0,0.,12.0
1981-08-25 04:03:30.500 ,1,0,0.,12.0,0.,12.0,0.,12.0,0.,12.0
1981-08-25 04:03:42.500 ,1,0,0.,12.0,0.,12.0,0.,12.0,0.,12.0
1981-08-25 04:03:54.500 ,1,0,0.,12.0,0.,12.0,0.,12.0,0.,12.0
1981-08-25 04:04:06.500 ,0,0,0.,12.0,0.,12.0,0.,12.0,0.,12.0
1981-08-25 04:04:18.500 ,0,0,0.,12.0,0.,12.0,0.,12.0,0.,12.0
1981-08-25 04:04:30.500 ,0,0,0.,12.0,0.,12.0,0.,12.0,0.,12.0
1981-08-25 04:04:42.500 ,0,0,0.,12.0,0.,12.0,0.,12.0,0.,12.0
1981-08-25 04:04:54.500 ,0,0,0.,12.0,0.,12.0,0.,12.0,0.,12.0
1981-08-25 04:05:06.500 ,0,0,0.,12.0,0.,12.0,0.,12.0,0.,12.0
1981-08-25 04:05:18.500 ,0,0,0.,12.0,0.,12.0,0.,12.0,0.,12.0
1981-08-25 04:05:30.500 ,0,0,0.,12.0,0.,12.0,0.,12.0,0.,12.0
1981-08-25 04:05:42.500 ,1,0,0.,12.0,0.,12.0,0.,12.0,0.,12.0
1981-08-25 04:05:54.500 ,1,0,0.,12.0,0.,12.0,0.,12.0,0.,12.0
1981-08-25 04:06:06.500 ,1,0,0.,12.0,0.,12.0,0.,12.0,0.,12.0
1981-08-25 04:06:18.500 ,1,0,0.,12.0,0.,12.0,0.,12.0,0.,12.0
1981-08-25 04:06:30.500 ,2,0,0.,12.0,0.,12.0,0.,12.0,0.,12.0
1981-08-25 04:06:42.500 ,2,0,0.,12.0,0.,12.0,0.,12.0,0.,12.0
1981-08-25 04:06:54.500 ,2,0,0.,12.0,0.,12.0,0.,12.0,0.,12.0
1981-08-25 04:07:06.500 ,2,0,0.,12.0,0.,12.0,0.,12.0,0.,12.0
1981-08-25 04:07:18.500 ,3,0,0.,12.0,0.,12.0,0.,12.0,0.,12.0
1981-08-25 04:07:30.500 ,3,0,0.,12.0,0.,12.0,0.,12.0,0.,12.0
1981-08-25 04:07:42.500 ,3,0,0.,12.0,0.,12.0,0.,12.0,0.,12.0
1981-08-25 04:07:54.500 ,3,0,0.,12.0,0.,12.0,0.,12.0,0.,12.0
1981-08-25 04:08:06.500 ,4,0,0.,12.0,0.,12.0,0.,12.0,0.,12.0
1981-08-25 04:08:18.500 ,4,0,0.,12.0,0.,12.0,0.,12.0,0.,12.0
1981-08-25 04:08:30.500 ,4,0,0.,12.0,0.,12.0,0.,12.0,0.,12.0
1981-08-25 04:08:42.500 ,4,0,0.,12.0,0.,12.0,0.,12.0,0.,12.0
1981-08-25 04:08:54.500 ,5,0,0.,12.0,0.,12.0,0.,12.0,0.,12.0
1981-08-25 04:09:06.500 ,5,0,0.,12.0,0.,12.0,0.,12.0,0.,12.0
1981-08-25 04:09:18.500 ,5,0,0.,12.0,0.,12.0,0.,12.0,0.,12.0
1981-08-25 04:09:30.500 ,5,0,0.,12.0,0.,12.0,0.,12.0,0.,12.0
1981-08-25 04:09:42.500 ,6,0,0.,12.0,0.,12.0,0.,12.0,0.,12.0
1981-08-25 04:09:54.500 ,6,0,0.,12.0,0.,12.0,0.,12.0,0.,12.0
1981-08-25 04:10:06.500 ,6,0,0.,12.0,0.,12.0,0.,12.0,0.,12.0
1981-08-25 04:10:18.500 ,6,0,0.,12.0,0.,12.0,0.,12.0,0.,12.0
1981-08-25 04:10:30.500 ,7,0,0.,12.0,0.,12.0,0.,12.0,0.,12.0
1981-08-25 04:10:42.500 ,7,0,0.,12.0,0.,12.0,0.,12.0,0.,12.0
1981-08-25 04:10:54.500 ,7,0,0.,12.0,0.,12.0,0.,12.0,0.,12.0
1981-08-25 04:11:06.500 ,7,0,0.,12.0,0.,12.0,0.,12.0,0.,12.0
1981-08-25 04:11:18.500 ,7,0,0.,12.0,0.,12.0,0.,12.0,0.,12.0
1981-08-25 04:11:30.500 ,7,0,0.,12.0,0.,12.0,0.,12.0,0.,12.0
1981-08-25 04:11:42.500 ,7,0,0.,12.0,0.,12.0,0.,12.0,0.,12.0
1981-08-25 04:11:54.500 ,7,0,0.,12.0,0.,12.0,0.,12.0,0.,12.0
1981-08-25 04:12:06.500 ,6,0,0.,12.0,0.,12.0,0.,12.0,0.,12.0
1981-08-25 04:12:18.500 ,6,0,0.,12.0,0.,12.0,0.,12.0,0.,12.0
1981-08-25 04:12:30.500 ,6,0,0.,12.0,0.,12.0,0.,12.0,0.,12.0
1981-08-25 04:12:42.500 ,6,0,0.,12.0,0.,12.0,0.,12.0,0.,12.0
1981-08-25 04:12:54.500 ,5,0,0.,12.0,0.,12.0,0.,12.0,0.,12.0
1981-08-25 04:13:06.500 ,5,0,0.,12.0,0.,12.0,0.,12.0,0.,12.0
1981-08-25 04:13:18.500 ,5,0,0.,12.0,0.,12.0,0.,12.0,0.,12.0
1981-08-25 04:13:30.500 ,5,0,0.,12.0,0.,12.0,0.,12.0,0.,12.0
1981-08-25 04:13:42.500 ,4,0,0.,12.0,0.,12.0,0.,12.0,0.,12.0
1981-08-25 04:13:54.500 ,4,0,0.,12.0,0.,12.0,0.,12.0,0.,12.0
1981-08-25 04:14:06.500 ,4,0,0.,12.0,0.,12.0,0.,12.0,0.,12.0
1981-08-25 04:14:18.500 ,4,0,0.,12.0,0.,12.0,0.,12.0,0.,12.0
1981-08-25 04:14:30.500 ,3,0,0.,12.0,0.,12.0,0.,12.0,0.,12.0
1981-08-25 04:14:42.500 ,3,0,0.,12.0,0.,12.0,0.,12.0,0.,12.0
1981-08-25 04:14:54.500 ,3,0,0.,12.0,0.,12.0,0.,12.0,0.,12.0
1981-08-25 04:15:06.500 ,3,0,0.,12.0,0.,12.0,0.,12.0,0.,12.0
1981-08-25 04:15:18.500 ,2,0,0.,12.0,0.,12.0,0.,12.0,0.,12.0
1981-08-25 04:15:30.500 ,2,0,0.,12.0,0.,12.0,0.,12.0,0.,12.0
1981-08-25 04:15:42.500 ,2,0,0.,12.0,0.,12.0,0.,12.0,0.,12.0
1981-08-25 04:15:54.500 ,2,0,0.,12.0,0.,12.0,0.,12.0,0.,12.0
1981-08-25 04:16:06.500 ,1,0,0.,12.0,0.,12.0,0.,12.0,0.,12.0
1981-08-25 04:16:18.500 ,1,0,0.,12.0,0.,12.0,0.,12.0,0.,12.0
1981-08-25 04:16:30.500 ,1,0,0.,12.0,0.,12.0,0.,12.0,0.,12.0
1981-08-25 04:16:42.500 ,1,0,0.,12.0,0.,12.0,0.,12.0,0.,12.0
1981-08-25 04:16:54.490 ,0,0,0.,12.0,0.,12.0,0.,12.0,0.,12.0
1981-08-25 04:17:06.490 ,0,0,0.,12.0,0.,12.0,0.,12.0,0.,12.0
1981-08-25 04:17:18.490 ,0,0,0.,12.0,0.,12.0,0.,12.0,0.,12.0
1981-08-25 04:17:30.490 ,0,0,0.,12.0,0.,12.0,0.,12.0,0.,12.0